Home   Weather   Karlstad   Past weeks
Flag for Sweden

Past Weather in Karlstad, Sweden — Yesterday and Last 2 Weeks

Now
50 °F

Partly sunny.


Feels Like: 45 °F
Forecast: 54 / 48 °F
Wind: 13 mph from Southwest

Location: Karlstad

Current Time: Oct 23, 2019 at 10:14:33 am

Latest Report: Oct 23, 2019 at 9:20 am


Visibility: N/A

Pressure: 29.89 "Hg

Humidity: 88%

Dew Point: 46 °F

Location of KarlstadLocation

Past Weather in Karlstad — Graph

°F

Karlstad Temperature Yesterday

Maximum temperature yesterday: 50 °F (at 11:20 am)
Minimum temperature yesterday: 37 °F (at 12:20 am)
Average temperature yesterday: 46 °F

High & Low Weather Summary for the Past Weeks

 TemperatureHumidityPressure
High55 °F (Oct 13, 3:50 pm)100% (Oct 8, 8:20 am)30.12 "Hg (Oct 8, 8:20 am)
Low34 °F (Oct 8, 8:20 am)63% (Oct 13, 3:20 pm)29.24 "Hg (Oct 11, 9:20 pm)
Average46 °F96%29.68 "Hg
* Reported Oct 8 8:20 am — Oct 23 8:50 am, Karlstad. Weather by CustomWeather, © 2019

Note: Actual official high and low records may vary slightly from our data, if they occured in-between our weather recording intervals... More about our weather records

Advertising

Karlstad Weather History for the Previous 24 Hours

Scroll right to see more
 ConditionsComfort  
Time TempWeatherWind HumidityBarometerVisibility
8:50 am
Wed, Oct 23
50 °FPartly sunny.14 mph88%29.89 "HgN/A
8:20 am50 °FPartly sunny.13 mph88%29.86 "HgN/A
7:50 am50 °FPassing clouds.12 mph88%29.86 "HgN/A
7:20 am50 °FPassing clouds.12 mph88%29.86 "HgN/A
6:50 am50 °FPassing clouds.9 mph88%29.86 "HgN/A
6:20 am48 °FPassing clouds.8 mph94%29.86 "HgN/A
5:50 am48 °FPassing clouds.8 mph94%29.86 "HgN/A
5:20 am48 °FMostly cloudy.9 mph94%29.86 "HgN/A
4:50 am48 °FPassing clouds.10 mph94%29.86 "HgN/A
4:20 am46 °FCool.8 mph93%29.86 "HgN/A
3:50 am46 °FCool.6 mph93%29.86 "HgN/A
3:20 am46 °FCool.6 mph93%29.86 "HgN/A
2:50 am46 °FPassing clouds.7 mph93%29.86 "HgN/A
2:20 am48 °FPassing clouds.7 mph87%29.86 "HgN/A
1:50 am48 °FPassing clouds.9 mph87%29.86 "HgN/A
1:20 am48 °FPassing clouds.12 mph87%29.86 "HgN/A
12:50 am50 °FPassing clouds.7 mph82%29.86 "HgN/A
12:20 am48 °FPassing clouds.10 mph87%29.86 "HgN/A
11:50 pm
Tue, Oct 22
50 °FCool.10 mph82%29.86 "HgN/A
11:20 pm50 °FCool.17 mph82%29.83 "HgN/A
10:50 pm50 °FCool.15 mph82%29.83 "HgN/A
10:20 pm50 °FPassing clouds.13 mph82%29.83 "HgN/A
9:50 pm48 °FCool.15 mph87%29.83 "HgN/A
9:20 pm50 °FCool.13 mph82%29.83 "HgN/A
8:50 pm48 °FPassing clouds.12 mph87%29.83 "HgN/A
8:20 pm50 °FPassing clouds.14 mph82%29.83 "HgN/A
7:50 pm50 °FPassing clouds.13 mph76%29.83 "HgN/A
7:20 pm50 °FPartly cloudy.15 mph76%29.83 "HgN/A
6:50 pm50 °FPassing clouds.15 mph76%29.83 "HgN/A
6:20 pm50 °FPassing clouds.15 mph76%29.83 "HgN/A
5:50 pm50 °FPassing clouds.18 mph76%29.80 "HgN/A
5:20 pm50 °FPassing clouds.15 mph76%29.80 "HgN/A
4:50 pm50 °FPassing clouds.15 mph76%29.80 "HgN/A
4:20 pm50 °FScattered clouds.18 mph76%29.80 "HgN/A
3:50 pm50 °FPassing clouds.15 mph76%29.80 "HgN/A
3:20 pm50 °FPassing clouds.17 mph76%29.80 "HgN/A
2:50 pm50 °FPassing clouds.15 mph76%29.80 "HgN/A
2:20 pm50 °FPassing clouds.20 mph76%29.83 "HgN/A
1:50 pm50 °FPassing clouds.21 mph76%29.80 "HgN/A
1:20 pm50 °FPassing clouds.22 mph76%29.83 "HgN/A
12:50 pm50 °FPassing clouds.18 mph82%29.83 "HgN/A
12:20 pm50 °FPassing clouds.16 mph76%29.83 "HgN/A
11:50 am50 °FPassing clouds.15 mph82%29.83 "HgN/A
11:20 am50 °FScattered clouds.15 mph82%29.83 "HgN/A
10:50 am48 °FScattered clouds.12 mph87%29.83 "HgN/A
10:20 am48 °FPassing clouds.13 mph87%29.83 "HgN/A
Weather by CustomWeather, © 2019

See weather overview